Location: Newark
(47.5989°N, 4.6950°E)
Time: 00:19:40
(UTC+00:00)

Envisat - Pass Details

Date: 17 November 2019
Orbit: 764 x 766 km, 98.1° (Epoch: 05 December)

Event Time Altitude Azimuth Distance (km) Brightness Sun altitude
Rises 05:32:56 0° 25° (NNE) 3,242 6.4 -12.7°
Reaches altitude 10° 05:35:45 10° 40° (NE) 2,311 5.8 -12.3°
Maximum altitude 05:39:43 23° 92° (E) 1,604 5.7 -11.6°
Drops below altitude 10° 05:43:39 10° 143° (SE) 2,297 6.3 -11.0°
Sets 05:46:25 0° 158° (SSE) 3,217 6.8 -10.5°
